Weather in Chelnavo-Rozhdestvenskoye

Russia / Tambov Oblast     52°57′18″N   41°11′24″E
temp.,
°C
wind,
m/s
gust,
m/s
humid.,
%
clouds,
%
prec.,
mm/h
press.,
hPa
HPBL,
m
7 march, sun
sun700:00−12wnw47920 0.0 1017141
03:00−12w49930 0.0 1017158
06:00−13sw499646 0.0 1016145
09:00−9sw7139054 0.0 1013421
12:00−5sw91580100 0.0 1010979
15:00−3sw111878100 0.1 10051170
18:00−3sw111892100 0.3 10011193
21:00−2wsw111893100 1.6 9981078
8 march, mon
mon800:00−3wnw81682100 1.1 998856
03:00−7w6148368 1.1 1001375
06:00−9wsw513870 0.0 1001287
09:00−6wsw6119317 0.1 1002471
12:00−3wsw71187100 0.1 10021152
15:00−3w61079100 0.4 10021216
18:00−6w5128782 0.1 1004574
21:00−10wnw469371 0.1 1007108
9 march, tue
tue900:00−13wnw34920 0.0 100979
03:00−14wnw33950 0.0 101043
06:00−15wnw349646 0.0 101262
09:00−13nw359369 0.1 1013208
12:00−10nw358995 0.0 1014372
15:00−10nw468896 0.0 1015565
18:00−12nw4894100 0.0 1016224
21:00−15nw489591 0.1 1019180
10 march, wed
wed1000:00−17nw379760 0.0 1020141
03:00−18nw359876 0.1 1021105
06:00−21nw359831 0.0 1023123
09:00−20nnw479546 0.0 1024256
12:00−18nw469152 0.0 1026338
15:00−17nw468927 0.0 1026397
18:00−19nw33950 0.0 102760
21:00−21nw23940 0.0 102941
11 march, thu
thu1100:00−22nw23950 0.0 102929
03:00−23nw22950 0.0 103120
06:00−23w22920 0.0 103121
09:00−19wsw22850 0.0 1031100
12:00−15sw23769 0.0 1031231
15:00−13ssw35835 0.0 1030260
18:00−16ssw36880 0.0 103098
21:00−17s47860 0.0 1030119